AMX420 MMGL-MMMY

Flight info

Callsign AMX420
Flight time 1h 2m
Altitude 29000
Route OTOKI1B OTOKI J42 ZCL UT5 SLW SLW1B
Aircraft CRJ7/M-SDFGIRWY/S

Departure

Time 2026-04-22 02:37
Airport Guadalajara International Airport (MMGL)

Arrival

Time 2026-04-22 03:39
Airport Monterrey International Airport (MMMY)
Time Latitude Longitude Altitude Speed Heading
2026-04-22 02:04 20.52389 -103.30285 5014 ft 0 kts 156°
2026-04-22 02:10 20.52388 -103.30285 4978 ft 0 kts 156°
2026-04-22 02:15 20.52405 -103.30291 5013 ft 3 kts 168°
2026-04-22 02:15 20.52417 -103.30293 5013 ft 0 kts 176°
2026-04-22 02:16 20.52427 -103.30293 5014 ft 2 kts 171°
2026-04-22 02:16 20.52437 -103.30300 5014 ft 2 kts 119°
2026-04-22 02:16 20.52438 -103.30303 5014 ft 0 kts 114°
2026-04-22 02:17 20.52437 -103.30301 5014 ft 1 kts 114°
2026-04-22 02:18 20.52435 -103.30295 5014 ft 0 kts 114°
2026-04-22 02:21 20.52434 -103.30294 5014 ft 0 kts 109°
2026-04-22 02:21 20.52433 -103.30289 5014 ft 1 kts 107°
2026-04-22 02:21 20.52428 -103.30279 5014 ft 5 kts 121°
2026-04-22 02:22 20.52396 -103.30255 5013 ft 6 kts 163°
2026-04-22 02:22 20.52348 -103.30244 5013 ft 8 kts 168°
2026-04-22 02:22 20.52298 -103.30243 5013 ft 7 kts 191°
2026-04-22 02:22 20.52256 -103.30230 5016 ft 9 kts 129°
2026-04-22 02:23 20.52223 -103.30162 5016 ft 11 kts 114°
2026-04-22 02:23 20.52193 -103.30085 5016 ft 12 kts 110°
2026-04-22 02:23 20.52162 -103.29998 5013 ft 12 kts 111°
2026-04-22 02:23 20.52128 -103.29909 5015 ft 13 kts 112°
2026-04-22 02:24 20.52088 -103.29810 5016 ft 19 kts 115°
2026-04-22 02:24 20.52033 -103.29685 5014 ft 18 kts 115°
2026-04-22 02:24 20.51986 -103.29570 5015 ft 14 kts 112°
2026-04-22 02:24 20.51944 -103.29480 5014 ft 12 kts 129°
2026-04-22 02:25 20.51893 -103.29418 5015 ft 15 kts 131°
2026-04-22 02:25 20.51836 -103.29348 5015 ft 10 kts 131°
2026-04-22 02:25 20.51798 -103.29302 5015 ft 12 kts 130°
2026-04-22 02:25 20.51741 -103.29225 5015 ft 11 kts 127°
2026-04-22 02:26 20.51686 -103.29162 5013 ft 10 kts 154°
2026-04-22 02:26 20.51635 -103.29161 5013 ft 8 kts 206°
2026-04-22 02:26 20.51578 -103.29196 5015 ft 10 kts 208°
2026-04-22 02:26 20.51516 -103.29227 5014 ft 6 kts 203°
2026-04-22 02:27 20.51503 -103.29233 5014 ft 1 kts 203°
2026-04-22 02:27 20.51502 -103.29233 5014 ft 0 kts 203°
2026-04-22 02:35 20.51499 -103.29235 5014 ft 4 kts 203°
2026-04-22 02:35 20.51459 -103.29253 5012 ft 7 kts 203°
2026-04-22 02:36 20.51424 -103.29278 5013 ft 5 kts 246°
2026-04-22 02:36 20.51422 -103.29312 5014 ft 4 kts 285°
2026-04-22 02:36 20.51449 -103.29379 5013 ft 30 kts 294°
2026-04-22 02:36 20.51638 -103.29825 5016 ft 101 kts 295°
2026-04-22 02:37 20.52009 -103.30711 5027 ft 156 kts 293°
2026-04-22 02:37 20.52517 -103.31804 5661 ft 166 kts 294°
2026-04-22 02:37 20.53103 -103.32831 6503 ft 161 kts 298°
2026-04-22 02:37 20.53619 -103.33905 7070 ft 177 kts 293°
2026-04-22 02:38 20.54165 -103.35244 7368 ft 212 kts 291°
2026-04-22 02:38 20.54754 -103.36774 7993 ft 232 kts 291°
2026-04-22 02:38 20.55377 -103.38429 8739 ft 248 kts 291°
2026-04-22 02:38 20.56036 -103.40164 9670 ft 253 kts 292°
2026-04-22 02:39 20.56715 -103.41912 10604 ft 261 kts 294°
2026-04-22 02:39 20.57475 -103.43742 11046 ft 285 kts 294°
2026-04-22 02:39 20.58306 -103.45714 11840 ft 293 kts 294°
2026-04-22 02:39 20.59331 -103.47607 12658 ft 303 kts 311°
2026-04-22 02:40 20.61071 -103.48884 13482 ft 308 kts 339°
2026-04-22 02:40 20.63202 -103.49211 14303 ft 313 kts
2026-04-22 02:40 20.65234 -103.48467 15265 ft 311 kts 32°
2026-04-22 02:40 20.66851 -103.46925 16077 ft 311 kts 50°
2026-04-22 02:41 20.68018 -103.45016 17074 ft 308 kts 63°
2026-04-22 02:41 20.68825 -103.42872 17724 ft 315 kts 72°
2026-04-22 02:41 20.69390 -103.40600 18450 ft 318 kts 76°
2026-04-22 02:41 20.69914 -103.38284 19039 ft 323 kts 74°
2026-04-22 02:42 20.70542 -103.35995 19736 ft 321 kts 71°
2026-04-22 02:42 20.71263 -103.33726 20313 ft 324 kts 65°
2026-04-22 02:42 20.72573 -103.31799 20821 ft 323 kts 36°
2026-04-22 02:42 20.74541 -103.30650 21240 ft 325 kts 17°
2026-04-22 02:43 20.76748 -103.29927 21427 ft 342 kts 12°
2026-04-22 02:43 20.79123 -103.29245 21439 ft 364 kts 13°
2026-04-22 02:43 20.81623 -103.28464 21466 ft 386 kts 15°
2026-04-22 02:43 20.84236 -103.27551 21547 ft 404 kts 16°
2026-04-22 02:44 20.86935 -103.26574 21913 ft 412 kts 16°
2026-04-22 02:44 20.89674 -103.25604 22458 ft 416 kts 15°
2026-04-22 02:44 20.92435 -103.24638 22990 ft 420 kts 15°
2026-04-22 02:44 20.95226 -103.23657 23529 ft 424 kts 15°
2026-04-22 02:45 20.98005 -103.22681 23966 ft 427 kts 15°
2026-04-22 02:45 21.00839 -103.21688 24408 ft 430 kts 15°
2026-04-22 02:45 21.03688 -103.20675 24852 ft 433 kts 15°
2026-04-22 02:45 21.06565 -103.19658 25269 ft 436 kts 14°
2026-04-22 02:46 21.09463 -103.18641 25656 ft 440 kts 14°
2026-04-22 02:46 21.12375 -103.17609 26082 ft 442 kts 14°
2026-04-22 02:46 21.14316 -103.16925 26338 ft 444 kts 14°
2026-04-22 02:46 21.18255 -103.15538 26764 ft 447 kts 14°
2026-04-22 02:47 21.20217 -103.14843 27025 ft 449 kts 14°
2026-04-22 02:47 21.23192 -103.13793 27391 ft 452 kts 14°
2026-04-22 02:47 21.26190 -103.12736 27756 ft 455 kts 14°
2026-04-22 02:47 21.29205 -103.11675 28111 ft 457 kts 14°
2026-04-22 02:48 21.32236 -103.10616 28428 ft 459 kts 13°
2026-04-22 02:48 21.35305 -103.09649 28754 ft 461 kts 11°
2026-04-22 02:48 21.38431 -103.08811 28932 ft 466 kts
2026-04-22 02:49 21.44848 -103.07248 29045 ft 478 kts
2026-04-22 02:49 21.51356 -103.05573 29066 ft 484 kts
2026-04-22 02:50 21.57877 -103.03868 29063 ft 483 kts
2026-04-22 02:50 21.64385 -103.02168 29058 ft 481 kts
2026-04-22 02:51 21.70873 -103.00472 29044 ft 479 kts
2026-04-22 02:51 21.77336 -102.98779 29049 ft 477 kts
2026-04-22 02:52 21.83784 -102.97090 29055 ft 476 kts
2026-04-22 02:52 21.90224 -102.95402 29061 ft 476 kts
2026-04-22 02:53 21.96653 -102.93715 29061 ft 475 kts
2026-04-22 02:53 22.03073 -102.92039 29066 ft 474 kts
2026-04-22 02:54 22.09489 -102.90359 29055 ft 474 kts
2026-04-22 02:54 22.15893 -102.88679 29071 ft 474 kts
2026-04-22 02:55 22.22300 -102.86988 29071 ft 474 kts
2026-04-22 02:55 22.28703 -102.85309 29080 ft 474 kts
2026-04-22 02:56 22.35107 -102.83609 29075 ft 475 kts
2026-04-22 02:56 22.41567 -102.81904 29102 ft 480 kts
2026-04-22 02:57 22.48092 -102.80178 29079 ft 484 kts
2026-04-22 02:57 22.54620 -102.78448 29085 ft 488 kts
2026-04-22 02:58 22.61244 -102.76694 29139 ft 491 kts
2026-04-22 02:58 22.67889 -102.74933 29189 ft 492 kts
2026-04-22 02:59 22.74547 -102.73165 29239 ft 493 kts
2026-04-22 02:59 22.81214 -102.71393 29295 ft 493 kts
2026-04-22 03:00 22.87865 -102.69528 29289 ft 498 kts 15°
2026-04-22 03:00 22.94102 -102.66087 29300 ft 508 kts 27°
2026-04-22 03:01 23.00078 -102.61973 29269 ft 508 kts 27°
2026-04-22 03:01 23.06141 -102.58026 29201 ft 508 kts 26°
2026-04-22 03:02 23.12211 -102.54082 29125 ft 509 kts 26°
2026-04-22 03:02 23.18285 -102.50130 29040 ft 509 kts 26°
2026-04-22 03:03 23.24361 -102.46174 29008 ft 509 kts 26°
2026-04-22 03:03 23.30442 -102.42210 29014 ft 509 kts 26°
2026-04-22 03:04 23.36517 -102.38244 28997 ft 509 kts 26°
2026-04-22 03:04 23.42556 -102.34300 28994 ft 509 kts 26°
2026-04-22 03:05 23.48634 -102.30328 28993 ft 509 kts 26°
2026-04-22 03:05 23.54719 -102.26344 28995 ft 509 kts 26°
2026-04-22 03:06 23.60794 -102.22361 28990 ft 509 kts 26°
2026-04-22 03:06 23.66865 -102.18376 28994 ft 510 kts 26°
2026-04-22 03:07 23.72943 -102.14380 28997 ft 510 kts 26°
2026-04-22 03:07 23.79017 -102.10386 28992 ft 510 kts 26°
2026-04-22 03:08 23.85093 -102.06383 29000 ft 510 kts 26°
2026-04-22 03:08 23.91164 -102.02379 28993 ft 510 kts 26°
2026-04-22 03:09 23.97237 -101.98373 28995 ft 510 kts 26°
2026-04-22 03:09 24.03318 -101.94361 28998 ft 510 kts 26°
2026-04-22 03:10 24.09389 -101.90343 28998 ft 510 kts 26°
2026-04-22 03:10 24.15472 -101.86321 29005 ft 510 kts 26°
2026-04-22 03:11 24.21505 -101.82323 29005 ft 511 kts 26°
2026-04-22 03:11 24.27587 -101.78293 29011 ft 511 kts 26°
2026-04-22 03:12 24.33665 -101.74257 29017 ft 511 kts 26°
2026-04-22 03:12 24.42784 -101.68193 29024 ft 511 kts 26°
2026-04-22 03:13 24.48860 -101.64149 29036 ft 511 kts 26°
2026-04-22 03:13 24.54940 -101.60096 29037 ft 511 kts 26°
2026-04-22 03:14 24.61020 -101.56037 29052 ft 511 kts 26°
2026-04-22 03:14 24.67101 -101.51974 29035 ft 511 kts 26°
2026-04-22 03:15 24.73179 -101.47910 29037 ft 511 kts 26°
2026-04-22 03:15 24.79248 -101.43846 29048 ft 511 kts 26°
2026-04-22 03:16 24.85319 -101.39778 29060 ft 511 kts 26°
2026-04-22 03:16 24.91386 -101.35701 29069 ft 511 kts 26°
2026-04-22 03:17 24.97459 -101.31620 29079 ft 511 kts 26°
2026-04-22 03:17 25.03487 -101.27563 29079 ft 511 kts 26°
2026-04-22 03:18 25.09557 -101.23472 29080 ft 511 kts 26°
2026-04-22 03:18 25.15633 -101.19376 29070 ft 511 kts 26°
2026-04-22 03:19 25.21627 -101.15325 29077 ft 503 kts 26°
2026-04-22 03:19 25.27579 -101.11299 29109 ft 501 kts 26°
2026-04-22 03:20 25.33518 -101.07284 28970 ft 502 kts 26°
2026-04-22 03:20 25.36504 -101.05263 28731 ft 503 kts 26°
2026-04-22 03:20 25.39480 -101.03239 28494 ft 502 kts 26°
2026-04-22 03:21 25.42465 -101.01220 28260 ft 501 kts 26°
2026-04-22 03:21 25.45429 -100.99205 28022 ft 497 kts 26°
2026-04-22 03:21 25.48320 -100.97196 27604 ft 486 kts 30°
2026-04-22 03:21 25.50774 -100.94652 27088 ft 483 kts 47°
2026-04-22 03:22 25.52497 -100.91484 26603 ft 479 kts 64°
2026-04-22 03:22 25.53600 -100.88048 26134 ft 470 kts 71°
2026-04-22 03:22 25.54436 -100.84575 25678 ft 462 kts 76°
2026-04-22 03:22 25.54931 -100.81093 25234 ft 455 kts 86°
2026-04-22 03:23 25.54954 -100.77594 24786 ft 457 kts 91°
2026-04-22 03:23 25.54848 -100.74089 24347 ft 454 kts 92°
2026-04-22 03:23 25.54754 -100.70645 23912 ft 452 kts 91°
2026-04-22 03:23 25.54743 -100.67174 23430 ft 450 kts 89°
2026-04-22 03:24 25.54791 -100.63667 22918 ft 448 kts 89°
2026-04-22 03:24 25.54823 -100.60245 22414 ft 441 kts 89°
2026-04-22 03:24 25.54838 -100.56925 21936 ft 433 kts 89°
2026-04-22 03:24 25.55221 -100.53620 21446 ft 423 kts 70°
2026-04-22 03:25 25.56483 -100.50729 21058 ft 413 kts 56°
2026-04-22 03:25 25.58021 -100.48073 20642 ft 410 kts 53°
2026-04-22 03:25 25.59655 -100.45535 20290 ft 410 kts 51°
2026-04-22 03:25 25.61360 -100.42966 19894 ft 409 kts 51°
2026-04-22 03:26 25.62995 -100.40392 19494 ft 408 kts 53°
2026-04-22 03:26 25.64566 -100.37773 19080 ft 407 kts 54°
2026-04-22 03:26 25.66143 -100.35217 18651 ft 405 kts 47°
2026-04-22 03:26 25.68207 -100.33136 18186 ft 400 kts 34°
2026-04-22 03:27 25.70425 -100.31272 17697 ft 397 kts 34°
2026-04-22 03:27 25.72582 -100.29389 17213 ft 392 kts 36°
2026-04-22 03:27 25.74645 -100.27428 16618 ft 390 kts 38°
2026-04-22 03:27 25.76699 -100.25396 15695 ft 398 kts 38°
2026-04-22 03:28 25.78756 -100.23374 15148 ft 393 kts 38°
2026-04-22 03:28 25.80816 -100.21357 14325 ft 396 kts 38°
2026-04-22 03:28 25.82869 -100.19342 13720 ft 391 kts 37°
2026-04-22 03:28 25.84898 -100.17362 13102 ft 386 kts 38°
2026-04-22 03:29 25.86885 -100.15420 12777 ft 374 kts 38°
2026-04-22 03:29 25.88794 -100.13547 12624 ft 358 kts 38°
2026-04-22 03:29 25.90629 -100.11758 12548 ft 343 kts 38°
2026-04-22 03:29 25.92421 -100.10092 12300 ft 332 kts 30°
2026-04-22 03:30 25.94528 -100.09254 11877 ft 317 kts
2026-04-22 03:30 25.96605 -100.09641 11504 ft 296 kts 334°
2026-04-22 03:30 25.98389 -100.10669 11147 ft 283 kts 324°
2026-04-22 03:30 25.99906 -100.11982 10812 ft 272 kts 315°
2026-04-22 03:31 26.01176 -100.13492 10449 ft 264 kts 304°
2026-04-22 03:31 26.01786 -100.15375 9958 ft 262 kts 270°
2026-04-22 03:31 26.01312 -100.17281 9550 ft 259 kts 242°
2026-04-22 03:31 26.00392 -100.19001 9278 ft 255 kts 238°
2026-04-22 03:32 25.99417 -100.20629 8985 ft 252 kts 236°
2026-04-22 03:32 25.98419 -100.22182 8590 ft 245 kts 234°
2026-04-22 03:32 25.97384 -100.23708 7966 ft 248 kts 231°
2026-04-22 03:32 25.96258 -100.25162 7401 ft 248 kts 225°
2026-04-22 03:33 25.95042 -100.26518 6857 ft 247 kts 222°
2026-04-22 03:33 25.94221 -100.27387 6498 ft 246 kts 221°
2026-04-22 03:33 25.92981 -100.28690 5926 ft 244 kts 220°
2026-04-22 03:33 25.91679 -100.29833 5485 ft 232 kts 201°
2026-04-22 03:34 25.90172 -100.29951 5190 ft 212 kts 160°
2026-04-22 03:34 25.88908 -100.29234 4943 ft 197 kts 147°
2026-04-22 03:34 25.87816 -100.28438 4671 ft 179 kts 143°
2026-04-22 03:34 25.86954 -100.27519 4447 ft 169 kts 124°
2026-04-22 03:35 25.86342 -100.26439 4234 ft 165 kts 120°
2026-04-22 03:35 25.85787 -100.25367 4060 ft 150 kts 120°
2026-04-22 03:35 25.85291 -100.24410 3892 ft 139 kts 120°
2026-04-22 03:35 25.84807 -100.23474 3731 ft 141 kts 120°
2026-04-22 03:36 25.84320 -100.22535 3554 ft 138 kts 120°
2026-04-22 03:36 25.83831 -100.21605 3378 ft 141 kts 121°
2026-04-22 03:36 25.83322 -100.20668 3189 ft 142 kts 121°
2026-04-22 03:36 25.82807 -100.19730 2997 ft 143 kts 121°
2026-04-22 03:37 25.82284 -100.18793 2830 ft 141 kts 122°
2026-04-22 03:37 25.81775 -100.17865 2622 ft 143 kts 121°
2026-04-22 03:37 25.81266 -100.16923 2391 ft 142 kts 121°
2026-04-22 03:37 25.80751 -100.15993 2155 ft 142 kts 121°
2026-04-22 03:38 25.80225 -100.15074 1991 ft 140 kts 121°
2026-04-22 03:38 25.79717 -100.14153 1801 ft 140 kts 118°
2026-04-22 03:38 25.79244 -100.13206 1609 ft 139 kts 118°
2026-04-22 03:38 25.78764 -100.12305 1433 ft 133 kts 123°
2026-04-22 03:39 25.78282 -100.11468 1291 ft 122 kts 120°
2026-04-22 03:39 25.77918 -100.10810 1269 ft 78 kts 121°
2026-04-22 03:39 25.77737 -100.10482 1266 ft 29 kts 121°
2026-04-22 03:39 25.77639 -100.10303 1265 ft 27 kts 121°
2026-04-22 03:40 25.77542 -100.10129 1258 ft 26 kts 122°
2026-04-22 03:40 25.77448 -100.09960 1262 ft 26 kts 121°
2026-04-22 03:40 25.77358 -100.09794 1259 ft 25 kts 121°
2026-04-22 03:40 25.77263 -100.09695 1256 ft 16 kts 194°
2026-04-22 03:41 25.77171 -100.09753 1256 ft 15 kts 216°
2026-04-22 03:41 25.77151 -100.09819 1252 ft 7 kts 296°
2026-04-22 03:41 25.77184 -100.09879 1256 ft 12 kts 301°
2026-04-22 03:41 25.77229 -100.09961 1260 ft 12 kts 301°
2026-04-22 03:42 25.77273 -100.10042 1256 ft 13 kts 301°
2026-04-22 03:42 25.77323 -100.10132 1258 ft 15 kts 301°
2026-04-22 03:42 25.77382 -100.10240 1266 ft 19 kts 301°
2026-04-22 03:42 25.77460 -100.10380 1267 ft 21 kts 302°
2026-04-22 03:43 25.77536 -100.10519 1269 ft 21 kts 301°
2026-04-22 03:43 25.77609 -100.10652 1268 ft 20 kts 301°
2026-04-22 03:43 25.77643 -100.10731 1268 ft 3 kts 242°
2026-04-22 03:43 25.77607 -100.10746 1267 ft 11 kts 174°
2026-04-22 03:44 25.77501 -100.10752 1267 ft 15 kts 194°
2026-04-22 03:44 25.77422 -100.10813 1268 ft 12 kts 245°
2026-04-22 03:44 25.77434 -100.10907 1271 ft 14 kts 286°
2026-04-22 03:44 25.77443 -100.11010 1267 ft 8 kts 272°
2026-04-22 03:45 25.77444 -100.11021 1267 ft 0 kts 272°